Regional Weather Roundup
Issued by NWS

Home | Current Version | Previous Version | Graphics & Text | Print | Product List | Glossary On
Versions: 1 2 3 4 5 6 7 8 9 10 11 12 13 14 15 16 17 18 19 20 21 22 23 24 25 26 27 28 29 30 31 32 33 34 35 36 37 38 39 40 41 42 43 44 45 46 47 48 49 50
000
ASUS43 KMKX 172111
RWRWI

WISCONSIN REGIONAL WEATHER ROUNDUP
NATIONAL WEATHER SERVICE MILWAUKEE/SULLIVAN WI
300 PM CST WED DEC 17 2014

NOTE: "FAIR" INDICATES FEW OR NO CLOUDS BELOW 12,000 FEET WITH NO
SIGNIFICANT WEATHER AND/OR OBSTRUCTIONS TO VISIBILITY.

WIZ001-002-006>008-014>016-023>028-172200-
NORTHWEST WISCONSIN

CITY           SKY/WX    TMP DP  RH WIND       PRES   REMARKS
SUPERIOR ARPT  PTCLDY    21  12  68 W3        30.31R
ASHLAND        LGT SNOW  24  19  81 NW7       30.26R WCI  16
HAYWARD        CLOUDY    19  12  74 CALM      30.26R HAZE
SIREN          CLOUDY    18   9  68 N6        30.29S WCI  10
CUMBERLAND     CLOUDY    18  10  73 NW7       30.26R WCI   8
RICE LAKE      CLOUDY    19  10  69 NW5       30.28S WCI  12
CHETEK         CLOUDY    19  10  69 NW5       30.27R WCI  12
LADYSMITH      CLOUDY    21  12  67 NW8       30.25S WCI  12
EAU CLAIRE     CLOUDY    19  10  68 N7        30.27S WCI  10
MENOMONIE      FLURRIES  19  12  72 W6        30.28S WCI  11
NEW RICHMOND   CLOUDY    17  11  77 N8        30.29S WCI   7
OSCEOLA        PTSUNNY   18  10  71 NW6       30.32S WCI  10
$$

WIZ003>005-009-010-017-018-172200-
NORTH CENTRAL WISCONSIN

CITY           SKY/WX    TMP DP  RH WIND       PRES   REMARKS
MANITOWISH WTR CLOUDY    19  17  90 NW8       30.16R WCI   9
ARBOR VITAE    CLOUDY    22  18  84 NW9       30.15R WCI  11
WOODRUFF       CLOUDY    22  18  84 NW9       30.15R WCI  11
RHINELANDER    CLOUDY    20  14  77 NW10      30.14R WCI   9
EAGLE RIVER    CLOUDY    22  17  81 NW9       30.13R WCI  11
LAND O LAKES   CLOUDY    23  19  85 N7G17     30.14R WCI  15
PHILLIPS       LGT SNOW  19  13  78 NW3       30.19R
TOMAHAWK       CLOUDY    21  14  74 NW8       30.17S WCI  12
MEDFORD        CLOUDY    18  11  72 W12       30.19S WCI   6
MERRILL        CLOUDY    22  13  68 NW10      30.17S WCI  11
$$

WIZ029-030-035-036-043>047-172200-
CENTRAL WISCONSIN

CITY           SKY/WX    TMP DP  RH WIND       PRES   REMARKS
WAUSAU         CLOUDY    21  13  71 W12       30.18R WCI   9
MOSINEE        CLOUDY    19  16  86 NW13      30.20R WCI   7
MARSHFIELD     MOSUNNY   19  11  70 NW14      30.21R WCI   6
STEVENS POINT  CLOUDY    20  11  67 W9G17     30.21R WCI   9
WAUPACA        CLEAR     27  14  57 W8        30.20R WCI  19
WAUTOMA        CLOUDY    23  15  71 NW12      30.22R WCI  12
WISC RAPIDS    PTSUNNY   21  12  68 NW12      30.23R WCI   9
CAMP DOUGLAS   FLURRIES  21  18  86 NW9       30.24S WCI  11
$$

WIZ011>013-019>022-031-037>040-048>050-172200-
NORTHEAST WISCONSIN

CITY           SKY/WX    TMP DP  RH WIND       PRES   REMARKS
ANTIGO         CLOUDY    22  15  75 NW12      30.14R WCI  10
SHAWANO        CLOUDY    28  16  60 W8        30.17R WCI  20
OCONTO         PTCLDY    27  16  64 NW13      30.15R WCI  16
STURGEON BAY   CLOUDY    25  16  68 W13G21    30.13R WCI  13
GREEN BAY      CLEAR     27  16  63 NW17      30.16R WCI  14
MANITOWOC      CLOUDY    27  18  69 NW15G22   30.16R WCI  15
APPLETON       PTCLDY    25  12  58 W13       30.17R WCI  13
CLINTONVILLE   MOCLDY    27  14  59 NW12      30.18R WCI  16
OSHKOSH        PTCLDY    25  14  63 W15G23    30.19R WCI  13
$$

WIZ032>034-041-042-053>061-172200-
SOUTHWEST WISCONSIN

CITY           SKY/WX    TMP DP  RH WIND       PRES   REMARKS
LA CROSSE      PTSUNNY   24  12  60 NW8       30.28S WCI  15
SPARTA         CLOUDY    20  13  73 N8        30.27S WCI  11
VIROQUA        PTSUNNY   22  15  75 NW8       30.22S WCI  13
BOSCOBEL       MOSUNNY   26  14  60 VRB6      30.26F WCI  19
PRAIRIE DU CHI SUNNY     25  14  62 NW9       30.26F WCI  15
PLATTEVILLE    MOSUNNY   23  16  74 CALM      30.23F
$$

WIZ056-057-062-063-064-067-068-172200-
SOUTH CENTRAL WISCONSIN

CITY           SKY/WX    TMP DP  RH WIND       PRES   REMARKS
REEDSBURG      PTSUNNY   22  14  70 NW8       30.23S WCI  13
BARABOO/DELLS  PTSUNNY   23  14  66 N8        30.22S WCI  14
LONE ROCK      CLOUDY    27  14  58 NW9       30.25F WCI  18
MINERAL POINT  CLOUDY    23  18  80 NW7       30.21F WCI  15
MADISON        CLOUDY    24  15  68 NW8       30.22R WCI  15
MIDDLETON      CLOUDY    26  16  66 NW12      30.22S WCI  15
WATERTOWN      CLOUDY    24  16  70 NW14      30.21R WCI  12
MONROE         CLOUDY    23  19  86 NW8       30.20F WCI  14
JANESVILLE     CLOUDY    27  18  69 NW14      30.22R WCI  15
$$

WIZ051-052-058>065-066-070>072-172200-
SOUTHEAST WISCONSIN

CITY           SKY/WX    TMP DP  RH WIND       PRES   REMARKS
MILWAUKEE      PTSUNNY   26  14  60 NW17      30.19R WCI  13
WAUKESHA       CLOUDY    23  16  74 NW17      30.20R WCI   9
MILWAUKEE/TIMM CLOUDY    25  16  68 W14G23    30.20R WCI  13
RACINE         CLOUDY    27  16  63 W12G18    30.21R WCI  17
BURLINGTON     CLOUDY    24  16  70 NW12      30.21R WCI  13
KENOSHA        PTSUNNY   26  17  68 W15       30.20R WCI  14
FOND DU LAC    CLOUDY    25  15  66 W16       30.19R WCI  12
SHEBOYGAN      PTCLDY    25  15  66 NW14      30.17R WCI  13
WEST BEND      CLOUDY    25  16  68 W15       30.18R WCI  12
JUNEAU         CLOUDY    22  16  75 W13G20    30.22R WCI  10
$$

LSZ147-162-172200-
LAKE SUPERIOR

STATION/POSITION TIME  TEMP    WIND        PRES    WAVE
                       AIR SEA DIR/SP/G            HT/PER
                 (UTC) (F)     (DEG/KT/KT) (MB)    (FT/S)
DEVILS ISLAND    2100   24      30/  6/  7 1026.2R
PORT WING        2040   24     330/  7/ 10 1025.4S
SAXON HARBOR     2000   26      20/ 10/ 13 1023.7R
$$

LMZ867-665-643>646-172200-
LAKE MICHIGAN

STATION/POSITION TIME  TEMP    WIND        PRES    WAVE
                       AIR SEA DIR/SP/G            HT/PER
                 (UTC) (F)     (DEG/KT/KT) (MB)    (FT/S)
CHAMBERS ISLAND  2000   28     250/  6/ 12 1019.3S
NORTHPORT PIER   2000   27     290/  9/ 17 1018.6R
SISTER BAY       2013          320/ 21/ 24   N/A
ALGOMA LAKESHORE 2014          330/  7/ 11   N/A
KEWAUNEE LAKESHO 2000   24     290/ 12/ 19 1019.4R
SHEBOYGAN LAKESH 2100   26 35  280/ 16/ 18 1022.9R
PORT WASHINGTON  2000   26     300/ 10/ 15 1022.7R
MILWAUKEE LAKESH 2000   26     280/ 12/ 17   N/A
KENOSHA   LAKESH 2100   26     280/ 15/ 19 1022.7R
$$

TC  - TEMPERATURE IN CELSIUS
VSB - VISIBILITY IN STATUTE MILES
WCI - WIND CHILL INDEX
HX  - HEAT INDEX



USA.gov is the U.S. government's official web portal to all federal, state and local government web resources and services.